Weather History for Winchester, VA

Change the Weather History Date:

Monday, January 7, 2013

  Actual Average Record
Temperature  
Mean Temperature 32 °F -  
Max Temperature 39 °F 43 °F 71 °F (1998)
Min Temperature 26 °F 26 °F 3 °F (2014)
Degree Days  
Heating Degree Days 32    
Moisture  
Dew Point 29 °F    
Average Humidity 78    
Maximum Humidity 93    
Minimum Humidity 61    
Precipitation  
Precipitation 0.00 in - - ()
Sea Level Pressure  
Sea Level Pressure 30.34 in    
Wind  
Wind Speed 7 mph (NW)    
Max Wind Speed 16 mph    
Max Gust Speed 21 mph    
Visibility 10 miles    
Events      
Averages and records for this station are not official NWS values.
T = Trace of Precipitation, MM = Missing Value Source: NWS Daily Summary

Daily Weather History Graph

Daily Weather History Graph

Search for Another Location

Airport:

Trip Planner

Search our weather history database for the weather conditions in past years. The results will help you decide how hot, cold, wet, or windy it might be!

Date:

Astronomy

Jan. 07, 2013 Rise Set
Actual Time 7:32 AM EST 5:06 PM EST
Civil Twilight 7:02 AM EST 5:35 PM EST
Nautical Twilight 6:29 AM EST 6:09 PM EST
Astronomical Twilight 5:56 AM EST 6:41 PM EST
Moon 2:54 AM EST (1/7) 1:15 PM EST (1/7)
Length of Visible Light 10h 33m
Length of Day
9h 34m
Waning Crescent, 23% of the Moon is Illuminated
Jan 7
Waning Crescent
Jan 11
New
Jan 18
First Quarter
Jan 26
Full
Feb 3
Last Quarter

Hourly Weather History & Observations

Time (EST) Temp. Windchill Dew Point Humidity Pressure Visibility Wind Dir Wind Speed Gust Speed Precip Events Conditions
12:35 AM 39.2 °F 34.2 °F 32.0 °F 75% 30.16 in 10.0 mi NW 6.9 mph - N/A   Overcast
12:55 AM 39.2 °F 32.0 °F 32.0 °F 75% 30.16 in 10.0 mi NW 11.5 mph - N/A   Overcast
1:15 AM 39.2 °F 32.5 °F 32.0 °F 75% 30.16 in 10.0 mi WNW 10.4 mph 17.3 mph N/A   Overcast
1:35 AM 39.2 °F 33.6 °F 32.0 °F 75% 30.18 in 10.0 mi NNW 8.1 mph - N/A   Overcast
1:55 AM 39.2 °F 31.6 °F 32.0 °F 75% 30.18 in 10.0 mi WNW 12.7 mph - N/A   Overcast
2:15 AM 39.2 °F 30.5 °F 32.0 °F 75% 30.19 in 10.0 mi WNW 16.1 mph 20.7 mph N/A   Overcast
2:35 AM 39.2 °F 31.2 °F 32.0 °F 75% 30.20 in 10.0 mi WNW 13.8 mph - N/A   Overcast
2:55 AM 39.2 °F 33.6 °F 32.0 °F 75% 30.21 in 10.0 mi WNW 8.1 mph 17.3 mph N/A   Overcast
3:15 AM 37.4 °F 31.4 °F 32.0 °F 81% 30.21 in 10.0 mi NW 8.1 mph 12.7 mph N/A   Overcast
3:35 AM 37.4 °F 28.9 °F 32.0 °F 81% 30.22 in 10.0 mi NW 13.8 mph 18.4 mph N/A   Overcast
3:55 AM 37.4 °F 29.8 °F 32.0 °F 81% 30.22 in 10.0 mi NW 11.5 mph - N/A   Overcast
4:15 AM 37.4 °F 30.8 °F 32.0 °F 81% 30.23 in 10.0 mi NW 9.2 mph - N/A   Overcast
4:35 AM 37.4 °F 31.4 °F 32.0 °F 81% 30.25 in 10.0 mi NNW 8.1 mph - N/A   Overcast
4:55 AM 37.4 °F 29.3 °F 32.0 °F 81% 30.25 in 10.0 mi NW 12.7 mph 16.1 mph N/A   Overcast
5:15 AM 37.4 °F 32.1 °F 32.0 °F 81% 30.26 in 10.0 mi NNW 6.9 mph - N/A   Overcast
5:55 AM 37.4 °F 31.4 °F 30.2 °F 75% 30.28 in 10.0 mi NNW 8.1 mph - N/A   Overcast
6:15 AM 35.6 °F 28.0 °F 30.2 °F 81% 30.30 in 10.0 mi NW 10.4 mph - N/A   Overcast
6:35 AM 35.6 °F 29.2 °F 30.2 °F 81% 30.30 in 10.0 mi NW 8.1 mph - N/A   Overcast
6:55 AM 35.6 °F 31.7 °F 30.2 °F 81% 30.31 in 10.0 mi NW 4.6 mph - N/A   Overcast
7:15 AM 35.6 °F 30.7 °F 28.4 °F 75% 30.32 in 10.0 mi NNW 5.8 mph - N/A   Overcast
7:35 AM 35.6 °F 29.9 °F 28.4 °F 75% 30.33 in 10.0 mi NNW 6.9 mph - N/A   Overcast
7:55 AM 35.6 °F 30.7 °F 28.4 °F 75% 30.35 in 10.0 mi NW 5.8 mph - N/A   Overcast
8:15 AM 35.6 °F 28.6 °F 28.4 °F 75% 30.36 in 10.0 mi NW 9.2 mph - N/A   Overcast
8:35 AM 35.6 °F 29.9 °F 28.4 °F 75% 30.38 in 10.0 mi NW 6.9 mph - N/A   Overcast
8:55 AM 35.6 °F 29.2 °F 28.4 °F 75% 30.39 in 10.0 mi NW 8.1 mph - N/A   Overcast
9:15 AM 35.6 °F 28.0 °F 28.4 °F 75% 30.40 in 10.0 mi NW 10.4 mph - N/A   Overcast
9:35 AM 35.6 °F 30.7 °F 28.4 °F 75% 30.41 in 10.0 mi NNW 5.8 mph - N/A   Overcast
9:55 AM 35.6 °F 29.9 °F 28.4 °F 75% 30.42 in 10.0 mi North 6.9 mph - N/A   Overcast
10:15 AM 35.6 °F 28.0 °F 30.2 °F 81% 30.43 in 10.0 mi WNW 10.4 mph - N/A   Overcast
10:35 AM 35.6 °F 27.1 °F 28.4 °F 75% 30.44 in 10.0 mi West 12.7 mph - N/A   Overcast
10:55 AM 35.6 °F 28.6 °F 28.4 °F 75% 30.44 in 10.0 mi WNW 9.2 mph 17.3 mph N/A   Overcast
11:15 AM 35.6 °F 27.5 °F 28.4 °F 75% 30.43 in 10.0 mi NW 11.5 mph - N/A   Overcast
11:35 AM 37.4 °F 32.8 °F 28.4 °F 70% 30.42 in 10.0 mi West 5.8 mph - N/A   Overcast
11:55 AM 35.6 °F 28.6 °F 28.4 °F 75% 30.42 in 10.0 mi WNW 9.2 mph - N/A   Overcast
12:35 PM 37.4 °F 30.3 °F 28.4 °F 70% 30.41 in 10.0 mi West 10.4 mph - N/A   Overcast
12:55 PM 37.4 °F 31.4 °F 28.4 °F 70% 30.40 in 10.0 mi WNW 8.1 mph - N/A   Mostly Cloudy
1:15 PM 37.4 °F 32.8 °F 28.4 °F 70% 30.40 in 10.0 mi NW 5.8 mph - N/A   Scattered Clouds
1:55 PM 39.2 °F 37.0 °F 28.4 °F 65% 30.39 in 10.0 mi NNW 3.5 mph - N/A   Scattered Clouds
2:15 PM 39.2 °F 35.0 °F 28.4 °F 65% 30.39 in 10.0 mi NW 5.8 mph - N/A   Scattered Clouds
2:55 PM 39.2 °F - 28.4 °F 65% 30.40 in 10.0 mi Calm Calm - N/A   Clear
3:15 PM 39.2 °F 35.9 °F 28.4 °F 65% 30.39 in 10.0 mi NW 4.6 mph - N/A   Clear
3:35 PM 39.2 °F - 28.4 °F 65% 30.39 in 10.0 mi Calm Calm - N/A   Clear
3:55 PM 39.2 °F - 26.6 °F 61% 30.39 in 10.0 mi Calm Calm - N/A   Clear
4:15 PM 39.2 °F 35.9 °F 28.4 °F 65% 30.40 in 10.0 mi NW 4.6 mph - N/A   Clear
4:35 PM 37.4 °F 33.8 °F 28.4 °F 70% 30.39 in 10.0 mi NW 4.6 mph - N/A   Clear
4:55 PM 37.4 °F - 26.6 °F 65% 30.40 in 10.0 mi Calm Calm - N/A   Scattered Clouds
5:15 PM 33.8 °F - 26.6 °F 75% 30.40 in 10.0 mi Calm Calm - N/A   Clear
5:55 PM 32.0 °F - 26.6 °F 80% 30.40 in 10.0 mi Calm Calm - N/A   Clear
6:15 PM 32.0 °F - 26.6 °F 80% 30.40 in 10.0 mi Calm Calm - N/A   Clear
6:35 PM 32.0 °F - 26.6 °F 80% 30.40 in 10.0 mi Calm Calm - N/A   Scattered Clouds
6:55 PM 30.2 °F - 26.6 °F 86% 30.39 in 10.0 mi Calm Calm - N/A   Clear
7:15 PM 30.2 °F - 26.6 °F 86% 30.40 in 10.0 mi Calm Calm - N/A   Clear
7:35 PM 30.2 °F - 26.6 °F 86% 30.40 in 10.0 mi Calm Calm - N/A   Scattered Clouds
7:55 PM 30.2 °F - 26.6 °F 86% 30.40 in 10.0 mi Calm Calm - N/A   Clear
8:15 PM 28.4 °F - 26.6 °F 93% 30.40 in 10.0 mi Calm Calm - N/A   Clear
8:35 PM 28.4 °F - 26.6 °F 93% 30.39 in 10.0 mi Calm Calm - N/A   Clear
8:55 PM 28.4 °F - 26.6 °F 93% 30.39 in 10.0 mi Calm Calm - N/A   Scattered Clouds
9:15 PM 28.4 °F - 24.8 °F 86% 30.38 in 10.0 mi Calm Calm - N/A   Scattered Clouds
9:35 PM 28.4 °F - 24.8 °F 86% 30.38 in 10.0 mi Calm Calm - N/A   Scattered Clouds
9:55 PM 26.6 °F - 24.8 °F 93% 30.38 in 10.0 mi Calm Calm - N/A   Clear
10:15 PM 28.4 °F - 24.8 °F 86% 30.37 in 10.0 mi Calm Calm - N/A   Clear
10:35 PM 28.4 °F 24.6 °F 24.8 °F 86% 30.37 in 10.0 mi SSW 3.5 mph - N/A   Clear
10:55 PM 28.4 °F 24.6 °F 23.0 °F 80% 30.37 in 10.0 mi South 3.5 mph - N/A   Clear
11:15 PM 26.6 °F 22.6 °F 24.8 °F 93% 30.37 in 10.0 mi SSW 3.5 mph - N/A   Scattered Clouds
11:35 PM 28.4 °F - 26.6 °F 93% 30.37 in 10.0 mi Calm Calm - N/A   Scattered Clouds
11:55 PM 26.6 °F 21.2 °F 24.8 °F 93% 30.36 in 10.0 mi SW 4.6 mph - N/A   Clear